STARLINK-33671, 63320

Orbit data source: Space-Track

STARLINK-33671, 63320 is a payload satellite owned by SpaceX/Seattle (US) in LEO that was launched on Tue, 18 Mar 2025 UTC via an FALCON 9 launch vehicle from the Air Force Eastern Test Range (AFETR). Payload-class satellites include a variety of spacecraft equipped with specific instruments for various scientific and technological missions. These include communications satellites like Starlink; space stations such as the ISS; scientific satellites like the Hubble; Earth observation satellites from companies like Planet Labs, Umbra, and HawkEye 360; GPS; miniature CubeSats for education and research; and military/defense satellites.

Loading next visibility...
Identifier
63320, 2025-057P
Orbit
LEO
Country
Flag of USUS
Related business
Manufacturer
SpaceX/Seattle
Mission
Operational Commercial Communications
Bus & Motor
STARLINK V2MO, Unknown motor
Mass
575 kg wet, ~530 kg dry
Launch date (UTC)
2025-03-18 (9 months ago)
Launch vehicle
FALCON 9
Launch site
Air Force Eastern Test Range (AFETR)
Object type
Payload
Rocket body
Debris
Shape & HBR
Box + 2 Pan, 17.7 m
Radar Cross Section
36.964 m², Large (>1 m²)

Expand to show TLE details & history
Last TLE update: 21 hours ago

TLE from 21 hours ago
0 STARLINK-33671
1 63320U 25057P   25351.65105593  .00020667  00000-0  75813-3 0  9991
2 63320  42.9987 123.5219 0000399 249.5903 110.4906 15.27593249 43354
Epoch: 2025-12-17T15:37Z
TLE epoch observation values (Epoch: 2025-12-17T15:37:31.232Z)
Latitude
Longitude
162.62391°
Altitude
482.881 km
Speed
7.626 km/s
True Right ascension
08h 14m 05s
True Declination
0° 00' 00"
Sunlit
Object was in full shadow at epoch
Visualization orbit readout
Latitude
Unknown
Longitude
Unknown
Altitude
Unknown
Speed
Unknown
Apparent Right ascension
Unknown
Apparent Declination
Unknown
Sunlit
N/A
Visualization observer readout
Local Sidereal Time
11:54:22
Azimuth
Unknown
Elevation
Unknown
Doppler factor
Unknown
Orbital elements
Apogee altitude
485.229 km
Perigee altitude
484.681 km
Semi-major axis
6,863.092 km
Eccentricity
0.00004
Inclination
42.9987°
RAAN
123.5219°
Arg. of periapsis
249.5903°
True anomaly
110.49488°
Mean anomaly
110.4906°
Eccentric anomaly
110.49274°
Mean motion
3.81736 °/min
Orbital period
94.31 mins
BSTAR
0.00075813
Loading maneuver chart data...
Computing Atmospheric mass density...
Loading historical data...
Loading historical data...
Loading historical data...
Loading historical data...
Loading historical data...
Loading historical data...
Loading historical data...

Documentation

Showing up to 5 results
|